This demonstration page uses our WeatherBlox Daily Observations layout. Learn more.

Left ArrowRight Arrow

Hourly Observations for November 1, 2020

Temp ( °F °C ) Dew Point ( °F °C ) Humidity (%) Winds ( mph kmh ) Pressure ( in mb ) Visibility ( mi km ) Precip ( " mm )
12:51 am 00:51 Clear 62 16.7 33 0.6 34 34 SSE 8 13 30.11 1020 10 16 0.00 0.00
1:51 am 01:51 Clear 62 16.7 33 0.6 34 34 SE 10 17 30.12 1020 10 16 0.00 0.00
2:51 am 02:51 Clear 64 17.8 33 0.6 32 32 SE 12 19 30.13 1020 10 16 0.00 0.00
3:51 am 03:51 Clear 66 18.9 32 0 28 28 E 12 19 30.14 1021 10 16 0.00 0.00
4:51 am 04:51 Clear 63 17.2 33 0.6 33 33 ESE 9 15 30.18 1022 10 16 0.00 0.00
5:51 am 05:51 Clear 60 15.6 33 0.6 36 36 ESE 9 15 30.21 1023 10 16 0.00 0.00
6:51 am 06:51 Sunny 62 16.7 32 0 32 32 ESE 14 22 30.24 1024 10 16 0.00 0.00
7:51 am 07:51 Sunny 65 18.3 32 0 29 29 E 12 19 30.28 1025 10 16 0.00 0.00
8:51 am 08:51 Sunny 65 18.3 33 0.6 31 31 ESE 12 19 30.30 1026 10 16 0.00 0.00
9:51 am 09:51 Sunny 69 20.6 35 1.7 29 29 SE 10 17 30.30 1026 10 16 0.00 0.00
10:51 am 10:51 Sunny 75 23.9 32 0 21 21 ESE 15 24 30.27 1025 10 16 0.00 0.00
11:51 am 11:51 Sunny 77 25 33 0.6 20 20 SE 15 24 30.25 1024 10 16 0.00 0.00
12:51 pm 12:51 Sunny 81 27.2 33 0.6 18 18 SE 16 26 30.21 1023 10 16 0.00 0.00
1:51 pm 13:51 Sunny 79 26.1 33 0.6 19 19 SSE 10 17 30.19 1022 10 16 0.00 0.00
2:51 pm 14:51 Sunny 81 27.2 33 0.6 18 18 ESE 10 17 30.16 1021 10 16 0.00 0.00
3:51 pm 15:51 Sunny 83 28.3 33 0.6 17 17 SE 13 20 30.15 1021 10 16 0.00 0.00
4:51 pm 16:51 Sunny 81 27.2 32 0 17 17 ESE 13 20 30.15 1021 10 16 0.00 0.00
5:51 pm 17:51 Clear 75 23.9 32 0 21 21 SE 8 13 30.17 1022 10 16 0.00 0.00
6:51 pm 18:51 Clear 71 21.7 34 1.1 26 26 E 10 17 30.20 1023 10 16 0.00 0.00
7:51 pm 19:51 Clear 72 22.2 34 1.1 25 25 E 12 19 30.21 1023 10 16 0.00 0.00
8:51 pm 20:51 Clear 70 21.1 34 1.1 27 27 E 9 15 30.22 1023 10 16 0.00 0.00
9:51 pm 21:51 Clear 69 20.6 33 0.6 26 26 ESE 10 17 30.22 1024 10 16 0.00 0.00
10:51 pm 22:51 Clear 65 18.3 33 0.6 31 31 SE 10 17 30.22 1023 10 16 0.00 0.00
11:51 pm 23:51 Clear 61 16.1 34 1.1 36 36 ESE 7 11 30.22 1023 10 16 0.00 0.00

Powered by AerisWeather